カタログに戻る

STARLINK-2628

運用中通信VLEO
NORAD 48359·PAYLOAD·🇺🇸 United States

打ち上げ May 4, 2021 から Cape Canaveral Space Force Station

Loading…

次のパス (今後24時間)

TLE

最新Source: CelesTrak SupGP

元期: Sep 14, 2026, 21:40 UTC

1 48359C 21038G   26257.90326389  .00009373  00000+0  29003-3 0  2570
2 48359  53.1579 197.8312 0001979 112.9043 225.7916 15.32921874    13

AllMySatでSTARLINK-2628をリアルタイム追跡

Download on the App Store